Flag for Estonia Weather past 2 weeks in Tallinn, Estonia

Now
54 °F

Passing clouds.


Feels Like: 52 °F
Forecast: 53 / 66 °F
Wind: 7 mph from Southwest

Location: Tallinn

Current Time: Sep 3, 2014 at 9:19:52 AM

Latest Report: Sep 3, 2014 at 8:50 AM


Visibility: N/A

Pressure: 30.36 "Hg

Humidity: 94%

Dew point: 52 °F

Location of TallinnLocation

Historic Weather in Tallinn — Graph

°F

Tallinn temperature yesterday

Maximum temperature yesterday: 63 °F (at 3:50 PM)
Minimum temperature yesterday: 46 °F (at 12:20 AM)
Average temperature yesterday: 54 °F

Past Weeks' High & Low Weather Summary

 TemperatureHumidityPressure
High66 °F (Aug 19, 3:20 PM)100% (Aug 19, 8:50 AM)30.36 "Hg (Aug 19, 8:50 AM)
Low46 °F (Aug 23, 3:20 AM)45% (Aug 30, 2:20 PM)29.33 "Hg (Aug 26, 9:50 AM)
Average56 °F86%29.81 "Hg
* Reported Aug 19 8:20 AM — Sep 3 8:20 AM, Tallinn, Weather by CustomWeather, © 2014

Note: Actual official high and low records may vary slightly from our data, if they occured in-between our weather recording intervals... More about our weather records

Advertising

Tallinn weather history for previous 24 hours

 ConditionsComfort  
Time TempWeatherWind HumidityBarometerVisibility
8:20 AM
Sep 3
54 °FSunny.6 mph94%30.36 "Hg10 mi
7:50 AM52 °FPassing clouds.7 mph94%30.36 "HgN/A
7:20 AM50 °FPassing clouds.8 mph94%30.36 "HgN/A
6:50 AM50 °FPassing clouds.6 mph94%30.36 "HgN/A
6:20 AM50 °FPassing clouds.2 mph94%30.36 "HgN/A
5:50 AM48 °FClear.No wind100%30.36 "Hg10 mi
5:20 AM48 °FClear.No wind100%30.36 "Hg6 mi
4:50 AM48 °FLight fog.3 mph100%30.33 "Hg6 mi
4:20 AM48 °FLight fog.No wind94%30.36 "HgN/A
3:50 AM48 °FClear.No wind100%30.36 "Hg10 mi
3:20 AM50 °FClear.No wind94%30.36 "Hg10 mi
2:50 AM50 °FClear.2 mph94%30.36 "Hg10 mi
2:20 AM50 °FClear.3 mph94%30.33 "Hg10 mi
1:50 AM52 °FClear.6 mph94%30.33 "Hg10 mi
1:20 AM52 °FClear.6 mph94%30.33 "Hg10 mi
12:50 AM52 °FClear.5 mph94%30.33 "Hg10 mi
12:20 AM52 °FPassing clouds.3 mph100%30.33 "HgN/A
11:50 PM
Sep 2
52 °FClear.No wind94%30.33 "Hg10 mi
11:20 PM52 °FClear.3 mph88%30.33 "Hg10 mi
10:50 PM52 °FClear.1 mph94%30.33 "Hg10 mi
10:20 PM50 °FClear.No wind100%30.33 "Hg10 mi
9:50 PM50 °FPassing clouds.2 mph94%30.30 "HgN/A
9:20 PM52 °FPassing clouds.2 mph94%30.30 "HgN/A
8:50 PM54 °FPassing clouds.2 mph94%30.30 "HgN/A
8:20 PM55 °FSunny.1 mph88%30.30 "Hg10 mi
7:50 PM57 °FSunny.3 mph82%30.30 "Hg10 mi
7:20 PM59 °FSunny.5 mph72%30.27 "Hg10 mi
6:50 PM61 °FPassing clouds.6 mph68%30.27 "HgN/A
6:20 PM59 °FScattered clouds.6 mph77%30.27 "HgN/A
5:50 PM59 °FPassing clouds.6 mph72%30.27 "HgN/A
5:20 PM61 °FPassing clouds.7 mph68%30.27 "HgN/A
4:50 PM63 °FPassing clouds.8 mph64%30.27 "HgN/A
4:20 PM63 °FPassing clouds.6 mph56%30.27 "Hg6 mi
3:50 PM63 °FPassing clouds.2 mph64%30.27 "HgN/A
3:20 PM61 °FPassing clouds.3 mph68%30.30 "HgN/A
2:50 PM61 °FScattered clouds.5 mph68%30.30 "HgN/A
2:20 PM61 °FPassing clouds.3 mph68%30.30 "HgN/A
1:50 PM61 °FPassing clouds.2 mph68%30.30 "HgN/A
1:20 PM59 °FPassing clouds.3 mph72%30.30 "HgN/A
12:50 PM59 °FPassing clouds.3 mph72%30.30 "HgN/A
12:20 PM59 °FPassing clouds.5 mph72%30.30 "HgN/A
11:50 AM57 °FSunny.3 mph77%30.30 "Hg10 mi
11:20 AM57 °FSunny.3 mph77%30.27 "Hg10 mi
10:50 AM57 °FSunny.2 mph77%30.27 "Hg10 mi
10:20 AM55 °FSunny.1 mph82%30.27 "Hg10 mi
9:50 AM55 °FScattered clouds.No wind82%30.27 "HgN/A
9:20 AM54 °FBroken clouds.2 mph94%30.27 "HgN/A
Weather by CustomWeather, © 2014

See weather overviewHow to use our weather pages